FW5423 Weather Reports


Display with metric or nautical units.
time (UTC)temp
F
wind
direction
speed
MPH
gust
MPH
rain 1hr
in
rain 24hr
in
rain mn
in
humidity
%
barometer
mb
20260509101524 50 359 6.0 14.0 0.02 0.39 0.20 98 1011.0
20260509101020 50 6.0 13.0 0.02 0.39 0.20 98 1011.0
20260509100519 50 359 6.0 16.0 0.02 0.39 0.20 98 1011.0
20260509100019 50 359 8.0 16.0 0.01 0.39 0.20 98 1011.0
20260509095517 50 359 9.0 18.0 0.01 0.39 0.20 98 1010.8
20260509095018 51 359 11.0 18.0 0.01 0.39 0.20 98 1010.7
20260509094522 51 266 10.0 18.0 0.01 0.39 0.20 98 1010.7
20260509094014 51 359 10.0 18.0 0.01 0.39 0.20 98 1010.6
20260509093513 51 359 11.0 18.0 0.01 0.39 0.20 98 1010.5
20260509093014 51 258 7.0 15.0 0.01 0.39 0.20 98 1010.3
20260509092013 51 359 7.0 12.0 0.01 0.39 0.20 99 1010.2
20260509091512 52 359 7.0 12.0 0.00 0.38 0.19 99 1010.1
20260509091012 52 7.0 11.0 0.00 0.38 0.19 98 1010.0
20260509090511 52 6.0 12.0 0.00 0.38 0.19 98 1009.8
20260509090026 53 359 6.0 12.0 0.00 0.38 0.19 99 1009.7
20260509085510 52 245 5.0 14.0 0.00 0.38 0.19 99 1009.6
20260509085009 52 359 6.0 14.0 0.00 0.38 0.19 99 1009.7
20260509084509 52 181 8.0 16.0 0.00 0.38 0.19 98 1009.6
20260509084010 52 250 9.0 20.0 0.00 0.38 0.19 99 1009.4
20260509083508 51 257 8.0 20.0 0.00 0.38 0.19 98 1009.2
20260509083014 51 359 10.0 17.0 0.00 0.38 0.19 98 1009.2
20260509082011 52 359 11.0 19.0 0.00 0.38 0.19 99 1009.1
20260509081506 51 359 11.0 19.0 0.00 0.38 0.19 98 1008.9
20260509081009 51 359 10.0 17.0 0.00 0.38 0.19 99 1009.0
20260509080505 51 359 9.0 16.0 0.00 0.38 0.19 99 1008.9
20260509080010 51 359 10.0 17.0 0.00 0.38 0.19 99 1008.8
20260509075504 51 359 11.0 19.0 0.00 0.38 0.19 99 1008.8
20260509075006 51 359 12.0 19.0 0.00 0.38 0.19 99 1008.7
20260509074503 51 253 10.0 17.0 0.00 0.38 0.19 99 1008.7
20260509074002 51 262 9.0 15.0 0.00 0.38 0.19 99 1008.7
20260509073506 51 359 8.0 14.0 0.00 0.38 0.19 99 1008.7
20260509073004 51 359 7.0 16.0 0.00 0.38 0.19 99 1008.9
20260509072002 51 359 10.0 16.0 0.00 0.38 0.19 98 1008.9
20260509071501 51 359 11.0 18.0 0.00 0.38 0.19 98 1008.9
20260509071101 51 359 12.0 19.0 0.00 0.38 0.19 98 1008.7
20260509070600 51 11.0 19.0 0.00 0.38 0.19 98 1008.7
20260509070101 51 359 12.0 20.0 0.00 0.38 0.19 98 1008.7
20260509065558 51 359 12.0 20.0 0.00 0.38 0.19 99 1008.6
20260509065058 52 359 13.0 22.0 0.00 0.38 0.19 99 1008.5
20260509064556 51 359 13.0 22.0 0.00 0.38 0.19 98 1008.3
20260509064056 51 359 12.0 20.0 0.00 0.38 0.19 98 1008.3
20260509063554 51 270 13.0 19.0 0.00 0.38 0.19 98 1008.3
20260509063109 51 12.0 20.0 0.00 0.38 0.19 98 1008.4
20260509062052 52 359 11.0 20.0 0.00 0.38 0.19 98 1008.5
20260509061555 52 270 11.0 17.0 0.00 0.38 0.19 98 1008.5
20260509061049 52 256 9.0 15.0 0.00 0.38 0.19 98 1008.4
20260509060548 53 251 6.0 15.0 0.00 0.38 0.19 98 1008.4
20260509060052 53 359 9.0 15.0 0.00 0.38 0.19 98 1008.3
20260509055545 53 359 9.0 16.0 0.00 0.38 0.19 98 1008.2
20260509055048 53 359 9.0 18.0 0.00 0.38 0.19 98 1008.3
20260509054544 53 257 11.0 19.0 0.00 0.38 0.19 98 1008.3
20260509054043 54 246 9.0 17.0 0.00 0.38 0.19 98 1008.3
20260509053542 55 359 10.0 17.0 0.00 0.38 0.19 98 1008.3
20260509053045 55 10.0 18.0 0.00 0.38 0.19 98 1008.3
20260509052040 56 270 10.0 18.0 0.00 0.38 0.19 98 1008.4
20260509051544 56 359 11.0 18.0 0.00 0.38 0.19 98 1008.3
20260509051038 57 359 10.0 18.0 0.00 0.38 0.19 98 1008.2
20260509050538 57 359 10.0 18.0 0.00 0.38 0.19 98 1008.1
20260509050050 57 359 10.0 16.0 0.00 0.38 0.19 98 1008.2
20260509045536 57 7.0 17.0 0.00 0.38 0.19 98 1008.1
20260509045035 58 359 9.0 17.0 0.00 0.38 0.19 98 1008.1
20260509044536 58 10.0 17.0 0.00 0.38 0.19 98 1008.3
20260509044034 58 359 11.0 19.0 0.01 0.38 0.19 98 1008.3
20260509043533 59 359 10.0 19.0 0.01 0.38 0.19 98 1008.2
20260509043042 59 359 9.0 18.0 0.02 0.38 0.19 98 1008.2
20260509042031 60 359 9.0 17.0 0.02 0.38 0.19 98 1008.1
20260509041531 60 359 10.0 17.0 0.02 0.38 0.19 98 1008.2
20260509041030 60 359 12.0 21.0 0.02 0.38 0.19 98 1008.0
20260509040532 60 359 11.0 21.0 0.02 0.38 0.19 98 1007.9
20260509040030 60 253 10.0 15.0 0.02 0.38 0.19 98 1008.0
20260509035530 60 359 10.0 21.0 0.02 0.38 0.19 98 1007.8
20260509035031 60 359 13.0 21.0 0.02 0.38 0.19 98 1008.0
20260509034530 60 359 12.0 21.0 0.02 0.38 0.19 98 1008.1
20260509034030 60 12.0 21.0 0.02 0.38 0.19 98 1008.2
20260509033530 60 359 11.0 19.0 0.02 0.37 0.18 98 1008.1
20260509033037 60 359 12.0 24.0 0.04 0.37 0.18 98 1008.1
20260509032028 61 359 18.0 33.0 0.05 0.36 0.17 98 1007.9
20260509031531 61 359 20.0 37.0 0.05 0.36 0.17 98 1007.6
20260509031027 61 359 21.0 37.0 0.04 0.35 0.17 98 1007.5
20260509030527 61 359 20.0 30.0 0.06 0.35 0.17 98 1007.0
20260509030029 61 359 18.0 32.0 0.07 0.35 0.17 98 1007.2
20260509025527 61 359 21.0 32.0 0.07 0.35 0.17 98 1007.0
20260509025026 61 359 20.0 30.0 0.09 0.35 0.17 98 1007.1
20260509024529 61 359 16.0 34.0 0.10 0.35 0.17 98 1007.2
20260509024030 60 359 17.0 32.0 0.12 0.35 0.17 98 1007.1
20260509023525 60 359 18.0 33.0 0.12 0.35 0.16 98 1007.2
20260509023027 60 359 17.0 33.0 0.11 0.34 0.15 98 1007.1
20260509022027 60 16.0 32.0 0.09 0.31 0.13 98 1007.1
20260509021526 60 359 20.0 32.0 0.09 0.31 0.13 98 1007.0
20260509021025 60 359 19.0 30.0 0.09 0.31 0.13 98 1006.7
20260509020525 60 359 17.0 30.0 0.08 0.31 0.12 98 1006.8
20260509020026 60 345 17.0 32.0 0.07 0.30 0.11 98 1006.6
20260509015525 60 359 17.0 32.0 0.06 0.28 0.09 98 1006.7
20260509015025 60 359 20.0 34.0 0.05 0.28 0.09 98 1007.1
20260509014527 60 359 20.0 38.0 0.03 0.26 0.07 98 1007.1
20260509014024 60 359 21.0 38.0 0.02 0.24 0.06 98 1007.2
20260509013524 60 359 20.0 35.0 0.01 0.24 0.05 98 1007.4
20260509013027 60 359 23.0 31.0 0.00 0.23 0.04 98 1007.6
20260509012021 60 359 22.0 31.0 0.00 0.23 0.04 98 1007.2
20260509011521 59 359 19.0 30.0 0.00 0.23 0.04 98 1007.1
20260509011020 59 359 21.0 28.0 0.00 0.23 0.04 98 1007.0
20260509010522 59 359 18.0 29.0 0.00 0.23 0.04 98 1007.0
20260509010020 59 359 18.0 29.0 0.00 0.23 0.04 98 1007.1
20260509005521 59 359 19.0 29.0 0.00 0.23 0.04 98 1007.0
20260509005020 59 359 19.0 34.0 0.00 0.23 0.04 98 1007.0
20260509004521 59 359 19.0 31.0 0.00 0.23 0.04 98 1007.1
20260509004020 59 359 20.0 31.0 0.00 0.23 0.04 98 1007.1
20260509003523 59 359 22.0 30.0 0.00 0.23 0.04 98 1007.1
20260509003019 59 359 17.0 28.0 0.00 0.23 0.04 98 1006.9
20260509002020 60 359 18.0 26.0 0.00 0.23 0.04 98 1006.9
20260509001520 60 359 19.0 26.0 0.01 0.23 0.04 98 1006.6
20260509001019 59 359 18.0 28.0 0.01 0.23 0.04 98 1006.5
20260509000519 59 359 16.0 25.0 0.01 0.23 0.04 98 1006.4
20260509000035 59 359 17.0 27.0 0.01 0.23 0.04 98 1006.4
20260508235519 60 359 17.0 27.0 0.01 0.23 0.04 98 1006.2
20260508235020 60 359 16.0 24.0 0.01 0.23 0.04 98 1006.4
20260508234518 60 359 14.0 23.0 0.01 0.23 0.04 98 1006.4
20260508234019 60 359 14.0 27.0 0.01 0.23 0.04 98 1006.4
20260508233522 60 359 16.0 27.0 0.01 0.23 0.04 98 1006.3
20260508233019 59 359 14.0 25.0 0.01 0.23 0.04 98 1006.4
20260508232020 59 359 19.0 34.0 0.01 0.23 0.04 98 1006.0
20260508231520 59 359 18.0 34.0 0.01 0.23 0.04 98 1005.9
20260508231023 59 359 18.0 31.0 0.00 0.22 0.03 98 1006.0
20260508230520 59 359 22.0 31.0 0.00 0.22 0.03 98 1006.2
20260508230019 59 359 22.0 31.0 0.00 0.22 0.03 98 1006.2
20260508225519 59 359 18.0 27.0 0.00 0.22 0.03 98 1006.3
20260508225019 59 359 17.0 24.0 0.00 0.22 0.03 98 1006.2
20260508224539 59 359 17.0 26.0 0.00 0.22 0.03 98 1006.6
20260508224018 59 359 19.0 25.0 0.00 0.22 0.03 98 1006.7
20260508223518 59 359 14.0 26.0 0.00 0.22 0.03 98 1006.8
20260508223018 59 359 16.0 30.0 0.00 0.22 0.03 98 1007.0
20260508222020 59 359 18.0 24.0 0.00 0.22 0.03 98 1006.8
20260508221517 59 359 15.0 25.0 0.00 0.22 0.03 98 1006.7
20260508221016 59 359 18.0 25.0 0.00 0.22 0.03 98 1006.7
20260508220519 59 359 18.0 26.0 0.00 0.22 0.03 98 1006.7
20260508220016 59 359 18.0 26.0 0.00 0.22 0.03 98 1006.6
20260508215514 59 359 14.0 23.0 0.00 0.22 0.03 98 1006.4
20260508215016 59 359 15.0 23.0 0.00 0.22 0.03 98 1006.3
20260508214516 59 359 13.0 22.0 0.00 0.22 0.03 98 1006.1
20260508214011 59 359 15.0 23.0 0.00 0.22 0.03 98 1005.9
20260508213511 59 359 15.0 23.0 0.00 0.22 0.03 98 1005.9
20260508213015 59 359 14.0 22.0 0.00 0.22 0.03 98 1005.8
20260508212011 59 359 15.0 22.0 0.00 0.22 0.03 97 1005.7
20260508211516 59 359 12.0 21.0 0.00 0.22 0.03 97 1005.7
20260508211011 59 359 14.0 21.0 0.00 0.22 0.03 97 1005.5
20260508210511 59 359 12.0 23.0 0.00 0.22 0.03 97 1005.3
20260508210013 60 359 16.0 23.0 0.00 0.22 0.03 97 1005.1
20260508205510 59 359 15.0 23.0 0.00 0.22 0.03 97 1005.1
20260508205015 59 359 17.0 23.0 0.00 0.22 0.03 97 1005.1
20260508204511 59 359 14.0 24.0 0.00 0.22 0.03 97 1005.1
20260508204010 59 359 17.0 26.0 0.00 0.22 0.03 97 1005.0
20260508203517 59 359 15.0 26.0 0.00 0.22 0.03 97 1005.3
20260508203012 59 359 15.0 26.0 0.00 0.22 0.03 97 1005.0
20260508202010 59 359 16.0 25.0 0.00 0.22 0.03 97 1005.0
20260508201509 59 359 17.0 25.0 0.00 0.22 0.03 98 1004.8
20260508201009 59 359 13.0 20.0 0.00 0.22 0.03 97 1004.8
20260508200509 59 359 11.0 17.0 0.00 0.22 0.03 97 1004.6
20260508200027 59 359 12.0 26.0 0.01 0.22 0.03 97 1004.7
20260508195510 59 359 14.0 26.0 0.01 0.22 0.03 96 1004.9
20260508195009 59 359 17.0 27.0 0.02 0.22 0.03 96 1004.9
20260508194513 59 359 20.0 27.0 0.02 0.22 0.03 96 1004.8
20260508194014 59 359 18.0 28.0 0.02 0.22 0.03 97 1004.6
20260508193507 59 359 19.0 29.0 0.02 0.22 0.03 97 1004.6
20260508193007 59 359 21.0 31.0 0.03 0.22 0.03 97 1004.3
20260508192015 59 359 18.0 31.0 0.03 0.22 0.03 97 1003.8
20260508191512 59 359 21.0 31.0 0.03 0.22 0.03 97 1003.9
20260508191010 59 359 19.0 30.0 0.03 0.22 0.03 97 1004.2
20260508190513 58 359 20.0 37.0 0.03 0.22 0.03 97 1004.4
20260508190011 58 359 24.0 39.0 0.02 0.21 0.02 97 1004.7
20260508185506 58 359 26.0 39.0 0.02 0.21 0.02 97 1004.7
20260508185005 58 359 23.0 36.0 0.02 0.21 0.02 97 1005.0
20260508184504 58 359 22.0 29.0 0.02 0.20 0.02 97 1005.2
20260508184003 58 359 21.0 29.0 0.02 0.20 0.02 97 1005.5
20260508183503 58 359 22.0 29.0 0.01 0.20 0.01 97 1005.8
20260508183002 58 359 20.0 31.0 0.00 0.19 0.00 97 1005.8
20260508181036 58 359 22.0 39.0 0.08 0.24 0.22 97 1006.2
20260508180534 58 359 24.0 39.0 0.06 0.22 0.20 97 1006.3
20260508180035 58 359 23.0 31.0 0.06 0.21 0.20 97 1006.2
20260508175535 58 359 21.0 31.0 0.06 0.20 0.19 97 1006.2
20260508174536 58 359 21.0 33.0 0.07 0.20 0.18 97 1005.8
20260508174036 58 359 19.0 32.0 0.08 0.19 0.17 97 1005.6
20260508173535 58 359 19.0 30.0 0.09 0.19 0.17 97 1005.5
20260508173036 58 359 20.0 30.0 0.10 0.18 0.17 97 1005.4
20260508172536 58 359 22.0 31.0 0.10 0.17 0.16 97 1005.6
20260508172033 58 359 21.0 31.0 0.10 0.17 0.15 97 1005.6
20260508171536 58 359 20.0 33.0 0.11 0.16 0.14 97 1005.7
20260508171032 58 359 22.0 33.0 0.11 0.16 0.14 97 1005.5
20260508170532 58 359 22.0 30.0 0.13 0.16 0.14 97 1005.7
20260508170032 58 359 19.0 30.0 0.12 0.15 0.13 97 1005.7
20260508165532 58 359 21.0 31.0 0.12 0.15 0.13 97 1005.9
20260508164530 58 296 21.0 32.0 0.11 0.14 0.13 96 1006.1
20260508164029 58 359 21.0 30.0 0.09 0.12 0.10 96 1006.1
20260508163528 58 359 21.0 36.0 0.07 0.10 0.09 96 1006.0
20260508163029 58 359 21.0 39.0 0.06 0.09 0.08 96 1006.2
20260508162527 58 359 22.0 40.0 0.05 0.08 0.06 96 1006.1
20260508162031 59 359 27.0 40.0 0.04 0.07 0.06 96 1005.9
20260508161534 59 359 29.0 39.0 0.02 0.06 0.04 95 1005.6
20260508161027 59 359 28.0 39.0 0.02 0.05 0.03 95 1005.6
20260508160525 59 283 27.0 39.0 0.01 0.04 0.02 96 1005.3
20260508160030 60 359 28.0 39.0 0.00 0.03 0.02 95 1005.2
20260508155528 60 359 26.0 42.0 0.00 0.03 0.02 95 1005.1
20260508154529 60 359 28.0 44.0 0.00 0.03 0.02 94 1004.8
20260508154028 60 359 27.0 44.0 0.00 0.03 0.02 94 1004.8
20260508153528 60 359 27.0 41.0 0.00 0.03 0.02 95 1004.9
20260508153028 60 359 28.0 41.0 0.00 0.03 0.02 95 1004.8
20260508152527 61 359 27.0 42.0 0.00 0.03 0.02 95 1005.0
20260508152029 61 359 29.0 42.0 0.00 0.03 0.02 95 1004.8
20260508151527 61 359 27.0 44.0 0.00 0.03 0.02 95 1004.9
20260508151030 61 359 29.0 42.0 0.00 0.03 0.02 95 1004.5
20260508150527 61 359 28.0 39.0 0.00 0.03 0.02 95 1004.6
20260508150033 61 359 28.0 47.0 0.00 0.03 0.02 95 1004.5
20260508145526 61 359 31.0 47.0 0.00 0.03 0.02 95 1004.6
20260508144540 61 359 26.0 43.0 0.00 0.03 0.02 95 1004.6
20260508144028 61 359 32.0 44.0 0.00 0.03 0.02 95 1004.6
20260508143531 61 359 33.0 44.0 0.00 0.03 0.02 95 1004.4
20260508143037 61 359 32.0 48.0 0.00 0.03 0.02 95 1005.1
20260508142528 61 359 31.0 48.0 0.00 0.03 0.02 95 1004.7
20260508142028 61 359 30.0 46.0 0.00 0.03 0.02 95 1004.3
20260508141528 61 359 31.0 47.0 0.01 0.03 0.02 95 1004.1
20260508141025 61 359 32.0 47.0 0.01 0.03 0.02 95 1004.4
20260508140526 61 359 36.0 47.0 0.01 0.03 0.02 95 1004.4
20260508140035 61 359 31.0 45.0 0.01 0.03 0.02 96 1004.9
20260508135525 60 359 27.0 45.0 0.01 0.03 0.02 96 1004.9
20260508134519 60 359 27.0 39.0 0.01 0.03 0.02 97 1005.3
20260508134018 60 359 25.0 36.0 0.01 0.03 0.02 97 1005.7
20260508133518 60 359 27.0 37.0 0.01 0.03 0.02 97 1005.6
20260508133018 60 359 27.0 37.0 0.01 0.03 0.02 97 1005.6
20260508132517 60 359 25.0 40.0 0.01 0.03 0.02 97 1005.9
20260508132014 60 359 27.0 40.0 0.01 0.03 0.02 97 1006.0
20260508131515 60 359 27.0 40.0 0.01 0.03 0.02 97 1006.0
20260508131017 60 359 27.0 37.0 0.00 0.02 0.01 97 1006.4
20260508130512 60 359 21.0 35.0 0.00 0.02 0.01 97 1006.4
20260508130016 60 359 22.0 35.0 0.00 0.02 0.01 97 1006.1
20260508125512 60 359 24.0 36.0 0.00 0.02 0.01 96 1006.1
20260508124516 60 359 21.0 32.0 0.00 0.02 0.01 96 1006.3
20260508124015 60 359 22.0 32.0 0.00 0.02 0.01 96 1006.2
20260508123515 60 359 21.0 33.0 0.00 0.02 0.01 96 1006.3
20260508123013 60 251 21.0 33.0 0.01 0.02 0.01 96 1006.4
20260508122513 60 359 21.0 30.0 0.01 0.02 0.01 96 1006.6
20260508122013 60 359 17.0 31.0 0.01 0.02 0.01 96 1006.5
20260508121519 60 359 21.0 32.0 0.01 0.02 0.01 97 1006.4
20260508121013 59 359 23.0 34.0 0.01 0.02 0.01 97 1006.4
20260508120513 59 359 19.0 34.0 0.01 0.02 0.01 97 1006.3
20260508120018 59 359 18.0 29.0 0.01 0.02 0.01 97 1006.5
20260508115512 59 359 21.0 27.0 0.01 0.02 0.01 97 1006.6
20260508114524 58 359 16.0 26.0 0.01 0.02 0.01 97 1006.8
20260508114006 58 359 18.0 27.0 0.01 0.02 0.01 97 1006.9
20260508113506 58 359 19.0 29.0 0.01 0.02 0.01 97 1007.0
20260508113006 58 359 21.0 29.0 0.02 0.02 0.01 97 1006.8
20260508112503 59 359 15.0 24.0 0.02 0.02 0.00 97 1007.0
20260508112003 58 359 15.0 23.0 0.02 0.02 0.00 97 1006.9
20260508111504 58 359 18.0 23.0 0.02 0.02 0.00 97 1006.9
20260508111001 58 359 15.0 24.0 0.02 0.02 0.00 97 1007.0
20260508110600 58 359 16.0 24.0 0.02 0.02 0.00 96 1006.9
20260508110502 58 359 16.0 24.0 0.02 0.02 0.00 96 1006.8
20260508110059 59 359 17.0 24.0 0.02 0.02 0.00 96 1006.7
20260508105558 59 359 16.0 23.0 0.02 0.02 0.00 96 1006.5
20260508104602 59 359 16.0 26.0 0.02 0.02 0.00 96 1006.5
20260508104057 59 359 16.0 23.0 0.02 0.02 0.00 96 1006.7
20260508103556 60 270 14.0 22.0 0.02 0.02 0.00 95 1006.6
20260508103104 60 359 14.0 25.0 0.02 0.02 0.02 95 1006.6
20260508102553 60 359 17.0 25.0 0.00 0.00 0.00 94 1006.7
20260508102053 60 359 16.0 25.0 0.00 0.00 0.00 93 1006.7